This is the latest recevied weather packets stored in our database for station/object DB5WY-13. If no packets are shown the sender has not sent any weather packets the latest 10 day(s).
| Time | Temp. | Humidity | Pressure | Rain* | Wind** | Luminosity | Snow |
|---|---|---|---|---|---|---|---|
| 1777887602 | 25.56° C | 42% | 1015.6 hPa | 0 mm | - | - | - |
| 1777887002 | 25° C | 43% | 1015.8 hPa | 0 mm | - | - | - |
| 1777886402 | 24.44° C | 44% | 1015.9 hPa | 0 mm | - | - | - |
| 1777885802 | 23.33° C | 46% | 1015.7 hPa | 0 mm | - | - | - |
| 1777885202 | 22.78° C | 46% | 1015.7 hPa | 0 mm | - | - | - |
| 1777884602 | 22.78° C | 46% | 1015.9 hPa | 0 mm | - | - | - |
| 1777884002 | 22.78° C | 45% | 1015.9 hPa | 0 mm | - | - | - |
| 1777883402 | 22.22° C | 47% | 1016 hPa | 0 mm | - | - | - |
| 1777882802 | 21.67° C | 48% | 1015.6 hPa | 0 mm | - | - | - |
| 1777882202 | 21.11° C | 49% | 1015.6 hPa | 0 mm | - | - | - |
| 1777881602 | 20° C | 51% | 1015.5 hPa | 0 mm | - | - | - |
| 1777881002 | 19.44° C | 53% | 1015.5 hPa | 0 mm | - | - | - |
| 1777880402 | 17.78° C | 57% | 1015.6 hPa | 0 mm | - | - | - |
| 1777879802 | 16.11° C | 60% | 1015.7 hPa | 0 mm | - | - | - |
| 1777879202 | 15.56° C | 58% | 1015.7 hPa | 0 mm | - | - | - |
| 1777878602 | 16.11° C | 59% | 1015.7 hPa | 0 mm | - | - | - |
| 1777878002 | 15° C | 61% | 1015.8 hPa | 0 mm | - | - | - |
| 1777877402 | 15° C | 59% | 1015.6 hPa | 0 mm | - | - | - |
| 1777876802 | 16.11° C | 56% | 1015.5 hPa | 0 mm | - | - | - |
| 1777876202 | 17.22° C | 56% | 1015.6 hPa | 0 mm | - | - | - |
| 1777875602 | 17.22° C | 55% | 1015.6 hPa | 0 mm | - | - | - |
| 1777875002 | 18.33° C | 55% | 1015.5 hPa | 0 mm | - | - | - |
| 1777874402 | 18.33° C | 58% | 1015.4 hPa | 0 mm | - | - | - |
| 1777873802 | 18.33° C | 58% | 1015.6 hPa | 0 mm | - | - | - |
| 1777873202 | 17.78° C | 60% | 1015.4 hPa | 0 mm | - | - | - |
* Rain latest hour (hover to see other rain measurements)
** Current wind speed in m/s (hover to see current wind gust speed)